Burnet, TX

10:28 AM CDT on August 22, 2017 (GMT -0500)
Burnet Municipal-Craddock

Weather History for KBMQ - January, 2015

Change the Weather History Date:

Monday, January 19, 2015

  Actual Average Record
Temperature  
Mean Temperature 55 °F -  
Max Temperature 73 °F 58 °F 87 °F (2000)
Min Temperature 37 °F 37 °F 28 °F (2003)
Degree Days  
Heating Degree Days 10    
Growing Degree Days 5 (Base 50)    
Moisture  
Dew Point 36 °F    
Average Humidity 54    
Maximum Humidity 79    
Minimum Humidity 27    
Precipitation  
Precipitation 0.00 in - - ()
Sea Level Pressure  
Sea Level Pressure 30.03 in    
Wind  
Wind Speed 3 mph (SSW)    
Max Wind Speed 13 mph    
Max Gust Speed 20 mph    
Visibility 10 miles    
Events      
Averages and records for this station are not official NWS values.
T = Trace of Precipitation, MM = Missing Value Source: NWS Daily Summary

Daily Weather History Graph

Daily Weather History Graph

Search for Another Location

Airport or City:

Trip Planner

Search our weather history database for the weather conditions in past years. The results will help you decide how hot, cold, wet, or windy it might be!

Date:

Astronomy

Jan. 19, 2015 Rise Set
Actual Time 7:30 AM CST 5:57 PM CST
Civil Twilight 7:04 AM CST 6:23 PM CST
Nautical Twilight 6:34 AM CST 6:52 PM CST
Astronomical Twilight 6:06 AM CST 7:21 PM CST
Moon 6:25 AM CST (1/19) 5:24 PM CST (1/19)
Length of Visible Light 11h 18m
Length of Day
10h 27m
Waning Crescent, 1% of the Moon is Illuminated
Jan 19
Waning Crescent
Jan 20
New
Jan 26
First Quarter
Feb 3
Full
Feb 11
Last Quarter

Hourly Weather History & Observations

Time (CST) Temp. Windchill Dew Point Humidity Pressure Visibility Wind Dir Wind Speed Gust Speed Precip Events Conditions
12:53 AM 41.0 °F - 28.0 °F 60% 30.16 in 10.0 mi Calm Calm - N/A   Clear
1:53 AM 37.9 °F - 28.0 °F 68% 30.15 in 10.0 mi Calm Calm - N/A   Clear
2:53 AM 39.0 °F - 28.9 °F 67% 30.14 in 10.0 mi Calm Calm - N/A   Clear
3:53 AM 41.0 °F - 28.0 °F 60% 30.12 in 10.0 mi Calm Calm - N/A   Clear
4:53 AM 39.0 °F 35.7 °F 28.9 °F 67% 30.10 in 10.0 mi West 4.6 mph - N/A   Clear
5:53 AM 42.1 °F - 28.0 °F 58% 30.09 in 10.0 mi Calm Calm - N/A   Clear
6:53 AM 39.0 °F 35.7 °F 28.9 °F 67% 30.09 in 10.0 mi SW 4.6 mph - N/A   Clear
7:53 AM 37.9 °F - 30.0 °F 73% 30.11 in 10.0 mi Calm Calm - N/A   Clear
8:53 AM 46.9 °F - 33.1 °F 59% 30.10 in 10.0 mi SSW 3.5 mph - N/A   Clear
9:53 AM 54.0 °F - 35.1 °F 49% 30.09 in 10.0 mi South 4.6 mph - N/A   Clear
10:53 AM 61.0 °F - 36.0 °F 39% 30.08 in 10.0 mi SW 10.4 mph - N/A   Clear
11:53 AM 64.9 °F - 37.9 °F 37% 30.05 in 10.0 mi South 9.2 mph 16.1 mph N/A   Clear
12:53 PM 70.0 °F - 39.0 °F 32% 30.00 in 10.0 mi SW 12.7 mph 19.6 mph N/A   Clear
1:53 PM 72.0 °F - 39.0 °F 30% 29.96 in 10.0 mi SSW 8.1 mph - N/A   Clear
2:53 PM 73.9 °F - 37.9 °F 27% 29.94 in 10.0 mi SW 10.4 mph - N/A   Clear
3:53 PM 73.9 °F - 37.9 °F 27% 29.92 in 10.0 mi SSW 9.2 mph - N/A   Clear
4:53 PM 73.0 °F - 41.0 °F 31% 29.92 in 10.0 mi South 5.8 mph - N/A   Clear
5:53 PM 70.0 °F - 41.0 °F 35% 29.92 in 10.0 mi Calm Calm - N/A   Clear
6:53 PM 60.1 °F - 42.1 °F 51% 29.94 in 10.0 mi Calm Calm - N/A   Clear
7:53 PM 61.0 °F - 44.1 °F 54% 29.95 in 10.0 mi Calm Calm - N/A   Clear
8:53 PM 54.0 °F - 43.0 °F 66% 29.96 in 10.0 mi Calm Calm - N/A   Clear
9:53 PM 48.0 °F - 41.0 °F 77% 29.96 in 10.0 mi Calm Calm - N/A   Clear
10:53 PM 48.9 °F - 41.0 °F 74% 29.96 in 10.0 mi Calm Calm - N/A   Clear
11:53 PM 46.0 °F - 39.9 °F 79% 29.96 in 10.0 mi Calm Calm - N/A   Clear